• In Kazakhstan
  • List of Countries
  • For 7 days
  • Water Temperature
  • Satellite Maps
  • Weather Map
  • News
  • Weather Widgets
  • user-avatar
    Login

    Hourly Weather Samborz

    Today, 21 March, Thursday

    Time Temperature Precipitation Wind Pressure Humidity
    00:00 +3°C° 0 mm 3 mps 761 mmHg 62%
    01:00 +3°C° 0 mm 3 mps 761 mmHg 62%
    02:00 +3°C° 0 mm 3 mps 761 mmHg 63%
    03:00 +3°C° 0 mm 3 mps 761 mmHg 64%
    04:00 +3°C° 0 mm 3 mps 760 mmHg 65%
    05:00 +3°C° 0 mm 3 mps 761 mmHg 66%
    06:00 +3°C° 0 mm 3 mps 761 mmHg 68%
    07:00 +5°C° 0 mm 2 mps 761 mmHg 69%
    08:00 +7°C° 0 mm 3 mps 761 mmHg 67%
    09:00 +9°C° 0 mm 3 mps 761 mmHg 65%
    10:00 +11°C° 0 mm 3 mps 761 mmHg 63%
    11:00 +12°C° 0 mm 3 mps 761 mmHg 62%
    12:00 +12°C° 0 mm 3 mps 761 mmHg 61%
    13:00 +13°C° 0 mm 3 mps 761 mmHg 60%
    14:00 +13°C° 0 mm 3 mps 760 mmHg 60%
    15:00 +14°C° 0 mm 3 mps 760 mmHg 60%
    16:00 +14°C° 0 mm 3 mps 760 mmHg 60%
    17:00 +14°C° 0 mm 2 mps 760 mmHg 66%
    18:00 +12°C° 0 mm 2 mps 760 mmHg 72%
    19:00 +11°C° 0 mm 1 mps 760 mmHg 77%
    20:00 +10°C° 0 mm 1 mps 760 mmHg 80%
    21:00 +10°C° 0 mm 1 mps 760 mmHg 84%
    22:00 +9°C° 0 mm 1 mps 760 mmHg 87%
    23:00 +9°C° 0 mm 1 mps 760 mmHg 87%

    Tomorrow, 22 March, Friday

    Time Temperature Precipitation Wind Pressure Humidity
    00:00 +9°C° 0 mm 1 mps 760 mmHg 88%
    01:00 +9°C° 0 mm 1 mps 760 mmHg 89%
    02:00 +8°C° 0 mm 1 mps 760 mmHg 89%
    03:00 +8°C° 0 mm 1 mps 760 mmHg 89%
    04:00 +8°C° 0 mm 1 mps 760 mmHg 90%
    05:00 +8°C° 0 mm 1 mps 760 mmHg 89%
    06:00 +9°C° 0 mm 1 mps 760 mmHg 88%
    07:00 +9°C° 0 mm 1 mps 760 mmHg 87%
    08:00 +11°C° 0 mm 1 mps 760 mmHg 81%
    09:00 +13°C° 0 mm 1 mps 760 mmHg 74%
    10:00 +14°C° 0 mm 1 mps 760 mmHg 68%
    11:00 +15°C° 0 mm 1 mps 760 mmHg 65%
    12:00 +16°C° 0 mm 1 mps 759 mmHg 61%
    13:00 +18°C° 0 mm 1 mps 759 mmHg 57%
    14:00 +18°C° 0 mm 1 mps 759 mmHg 57%
    15:00 +19°C° 0 mm 1 mps 758 mmHg 56%
    16:00 +19°C° 0 mm 1 mps 758 mmHg 55%
    17:00 +16°C° 0 mm 1 mps 758 mmHg 62%
    18:00 +15°C° 0 mm 1 mps 758 mmHg 68%
    19:00 +13°C° 0 mm 2 mps 758 mmHg 75%
    20:00 +13°C° 0 mm 2 mps 758 mmHg 79%
    21:00 +12°C° 0 mm 2 mps 758 mmHg 82%
    22:00 +10°C° 0 mm 2 mps 758 mmHg 86%
    23:00 +10°C° 0 mm 2 mps 757 mmHg 86%

    Day after tomorrow, 23 March, Saturday

    Time Temperature Precipitation Wind Pressure Humidity
    00:00 +10°C° 0 mm 2 mps 757 mmHg 86%
    01:00 +9°C° 0 mm 2 mps 757 mmHg 86%
    02:00 +9°C° 0 mm 2 mps 757 mmHg 86%
    03:00 +9°C° 0 mm 2 mps 756 mmHg 86%
    04:00 +9°C° 0 mm 2 mps 756 mmHg 85%
    05:00 +9°C° 0 mm 2 mps 756 mmHg 84%
    06:00 +9°C° 0 mm 2 mps 756 mmHg 82%
    07:00 +9°C° 0 mm 2 mps 756 mmHg 80%
    08:00 +13°C° 0 mm 1 mps 756 mmHg 72%
    09:00 +15°C° 0 mm 1 mps 756 mmHg 63%
    10:00 +18°C° 0 mm 1 mps 756 mmHg 55%
    11:00 +19°C° 0 mm 1 mps 755 mmHg 51%
    12:00 +20°C° 0 mm 1 mps 755 mmHg 47%
    13:00 +21°C° 0 mm 1 mps 754 mmHg 44%
    14:00 +20°C° 0 mm 2 mps 754 mmHg 44%
    15:00 +20°C° 0 mm 2 mps 754 mmHg 44%
    16:00 +20°C° 0 mm 2 mps 754 mmHg 44%
    17:00 +19°C° 0 mm 2 mps 754 mmHg 49%
    18:00 +17°C° 0 mm 2 mps 754 mmHg 55%
    19:00 +16°C° 0 mm 2 mps 754 mmHg 60%
    20:00 +15°C° 0 mm 2 mps 755 mmHg 66%
    21:00 +13°C° 0 mm 3 mps 755 mmHg 72%
    22:00 +12°C° 0 mm 3 mps 755 mmHg 77%
    23:00 +11°C° 0 mm 3 mps 755 mmHg 81%

    24 March, Sunday

    Time Temperature Precipitation Wind Pressure Humidity
    00:00 +10°C° 0 mm 3 mps 755 mmHg 84%
    01:00 +9°C° 0 mm 3 mps 756 mmHg 87%
    02:00 +9°C° 0.1 mm 3 mps 756 mmHg 86%
    03:00 +9°C° 0.1 mm 3 mps 756 mmHg 85%
    04:00 +8°C° 0.1 mm 3 mps 756 mmHg 84%
    05:00 +8°C° 0 mm 3 mps 756 mmHg 81%
    06:00 +7°C° 0 mm 3 mps 756 mmHg 79%
    07:00 +7°C° 0 mm 3 mps 756 mmHg 77%
    08:00 +8°C° 0 mm 2 mps 756 mmHg 72%
    09:00 +8°C° 0 mm 2 mps 756 mmHg 68%
    10:00 +10°C° 0 mm 1 mps 756 mmHg 64%
    11:00 +10°C° 0 mm 1 mps 755 mmHg 63%
    12:00 +11°C° 0 mm 1 mps 755 mmHg 62%
    13:00 +12°C° 0 mm 1 mps 754 mmHg 61%
    14:00 +12°C° 0 mm 1 mps 754 mmHg 61%
    15:00 +12°C° 0 mm 1 mps 753 mmHg 60%
    16:00 +12°C° 0 mm 1 mps 752 mmHg 60%
    17:00 +11°C° 0 mm 1 mps 752 mmHg 63%
    18:00 +10°C° 0 mm 1 mps 752 mmHg 67%
    19:00 +9°C° 0 mm 1 mps 752 mmHg 70%
    20:00 +9°C° 0 mm 1 mps 752 mmHg 70%
    21:00 +9°C° 0 mm 1 mps 751 mmHg 69%
    22:00 +9°C° 0 mm 1 mps 751 mmHg 69%
    23:00 +8°C° 0.6 mm 1 mps 751 mmHg 72%

    25 March, Monday

    Time Temperature Precipitation Wind Pressure Humidity
    00:00 +7°C° 0.6 mm 2 mps 750 mmHg 76%
    01:00 +6°C° 0.6 mm 2 mps 750 mmHg 80%
    02:00 +6°C° 0.6 mm 2 mps 750 mmHg 82%
    03:00 +5°C° 0.6 mm 2 mps 750 mmHg 85%
    04:00 +5°C° 0.6 mm 2 mps 750 mmHg 88%
    05:00 +4°C° 0 mm 3 mps 750 mmHg 85%
    06:00 +4°C° 0 mm 3 mps 750 mmHg 83%
    07:00 +4°C° 0 mm 4 mps 750 mmHg 80%
    08:00 +5°C° 0 mm 4 mps 750 mmHg 73%
    09:00 +7°C° 0 mm 5 mps 750 mmHg 66%
    10:00 +8°C° 0 mm 5 mps 750 mmHg 59%
    11:00 +8°C° 0.1 mm 6 mps 750 mmHg 56%
    12:00 +8°C° 0.1 mm 7 mps 750 mmHg 53%
    13:00 +9°C° 0.1 mm 8 mps 749 mmHg 50%
    14:00 +7°C° 0 mm 8 mps 749 mmHg 51%
    15:00 +7°C° 0 mm 8 mps 748 mmHg 53%
    16:00 +7°C° 0 mm 8 mps 748 mmHg 54%
    17:00 +6°C° 0.1 mm 8 mps 748 mmHg 58%
    18:00 +5°C° 0.1 mm 8 mps 748 mmHg 61%
    19:00 +4°C° 0.1 mm 8 mps 748 mmHg 65%
    20:00 +3°C° 0.2 mm 7 mps 748 mmHg 67%
    21:00 +3°C° 0.2 mm 7 mps 748 mmHg 69%
    22:00 +2°C° 0.2 mm 6 mps 748 mmHg 71%
    23:00 0°C° 0 mm 7 mps 748 mmHg 72%

    26 March, Tuesday

    Time Temperature Precipitation Wind Pressure Humidity
    00:00 0°C° 0 mm 8 mps 748 mmHg 72%
    01:00 0°C° 0 mm 8 mps 748 mmHg 73%
    02:00 -1°C° 0 mm 9 mps 748 mmHg 72%
    03:00 -1°C° 0 mm 9 mps 747 mmHg 71%
    04:00 -1°C° 0 mm 9 mps 747 mmHg 70%
    05:00 -2°C° 0 mm 10 mps 747 mmHg 69%
    06:00 -2°C° 0 mm 10 mps 747 mmHg 67%
    07:00 -2°C° 0 mm 10 mps 747 mmHg 65%
    08:00 -2°C° 0.3 mm 11 mps 748 mmHg 62%
    09:00 -2°C° 0.3 mm 11 mps 748 mmHg 58%
    10:00 -2°C° 0.3 mm 11 mps 749 mmHg 55%
    11:00 -1°C° 0.1 mm 11 mps 749 mmHg 53%
    12:00 +1°C° 0.1 mm 11 mps 750 mmHg 51%
    13:00 +1°C° 0.1 mm 10 mps 750 mmHg 49%
    14:00 +1°C° 0 mm 10 mps 751 mmHg 49%
    15:00 +1°C° 0 mm 10 mps 751 mmHg 48%
    16:00 +1°C° 0 mm 9 mps 751 mmHg 48%
    17:00 0°C° 0 mm 8 mps 752 mmHg 50%
    18:00 0°C° 0 mm 7 mps 753 mmHg 53%
    19:00 -1°C° 0 mm 6 mps 754 mmHg 55%
    20:00 -1°C° 0 mm 6 mps 754 mmHg 57%
    21:00 -2°C° 0 mm 7 mps 755 mmHg 58%
    22:00 -3°C° 0 mm 7 mps 755 mmHg 60%
    23:00 -3°C° 0 mm 7 mps 755 mmHg 62%
    Show more